Probability
11 10 9 8 7 6 6 6 6 4 2 4 5 3 1 2 2 1 0 0 0 0 0 0 0 0 0 0 0 0 0 0 0 1 1 1 1 0 0 0 0 0 0
9 9 8 7 7 6 6 6 6 4 2 3 4 3 1 1 1 0 0 0 0 0 0 0 0 0 0 0 0 0 0 0 0 0 0 1 1 0 0 0 0 0 0
8 7 6 6 6 5 5 5 5 3 1 1 2 1 0 0 0 0 0 0 0 0 0 0 0 0 0 0 0 0 0 0 0 0 0 0 0 0 0 0 0 0 0
6 5 4 4 4 3 3 4 3 1 0 0 0 0 0 0 0 0 0 0 0 0 0 0 0 0 0 0 0 0 0 0 0 0 0 0 0 0 0 0 0 0 0
6 5 3 3 2 2 2 2 2 1 0 0 0 0 0 0 0 0 0 0 0 0 0 0 0 0 0 0 0 0 0 0 0 0 0 0 0 0 0 0 0 0 0
7 5 3 3 2 1 1 1 1 1 0 0 0 0 0 0 0 0 0 0 0 0 0 0 0 0 0 0 0 0 0 0 0 0 0 0 0 0 0 0 0 0 0
5 4 3 3 2 1 0 0 0 0 0 0 0 0 0 0 0 0 0 0 0 0 0 0 0 0 0 0 0 0 0 0 0 0 0 0 0 0 0 0 0 0 0
4 4 4 3 2 1 0 0 0 0 0 0 0 0 0 0 0 0 0 0 0 0 0 0 0 0 0 0 0 0 0 0 0 0 0 0 0 0 0 0 0 0 0
5 5 5 3 2 0 0 0 0 0 0 0 0 0 0 0 0 0 0 0 0 0 0 0 0 0 0 0 0 0 0 0 0 0 0 0 0 0 0 0 0 0 0
6 6 5 3 1 0 0 0 0 0 0 0 0 0 0 0 0 0 0 0 0 0 0 0 0 0 0 0 0 0 0 0 0 0 0 0 0 0 0 0 0 0 0
6 5 2 1 1 0 0 0 0 0 0 0 0 0 0 0 0 0 0 0 0 0 0 0 0 0 0 0 0 0 0 0 0 0 0 0 0 0 0 0 0 0 0
4 3 1 0 0 0 1 0 0 0 0 0 0 0 0 0 0 0 0 0 0 0 0 0 0 0 0 0 0 0 0 0 0 0 0 0 0 0 0 0 0 0 0
3 2 1 0 0 0 0 0 0 0 0 0 0 0 0 0 0 0 0 0 0 0 0 0 0 0 0 0 0 0 0 0 0 0 0 0 0 0 0 0 0 0 0
2 2 1 0 0 0 0 0 0 0 0 0 0 0 0 0 0 0 0 0 0 0 0 0 0 0 0 0 0 0 0 0 0 0 0 0 0 0 0 0 0 0 0
1 1 0 0 0 0 0 0 0 0 0 0 0 0 0 0 0 0 0 0 0 0 0 0 0 0 0 0 0 0 0 0 0 0 0 0 0 0 0 0 0 0 0
0 0 0 0 0 0 0 0 0 0 0 0 0 0 0 0 0 0 0 0 0 0 0 0 0 0 0 0 0 0 0 0 0 0 0 0 0 0 0 0 0 0 0
0 0 0 0 0 0 0 0 0 0 0 0 0 0 0 0 0 0 0 0 0 0 0 0 0 0 0 0 0 0 0 0 0 0 0 0 0 0 0 0 1 1 0
0 0 0 0 0 0 0 0 0 0 0 0 0 0 0 0 0 0 0 0 0 0 0 0 0 0 0 0 0 0 0 0 0 0 0 0 0 0 1 1 2 1 1
0 0 0 0 0 0 0 0 0 0 0 0 0 0 0 0 0 0 0 0 0 0 0 0 0 0 0 0 0 0 0 0 0 0 0 1 1 1 2 2 2 1 0
0 0 0 0 0 0 0 0 0 0 0 0 0 0 0 0 0 0 0 0 0 0 0 0 0 0 0 0 0 0 0 0 0 0 0 1 2 2 2 1 1 0 0
0 0 0 0 0 0 0 0 0 0 0 0 0 0 0 0 0 0 0 0 0 0 0 0 0 0 0 0 0 0 0 0 0 0 0 1 1 2 2 1 0 0 0
0 0 0 0 0 0 0 0 0 0 0 0 0 0 0 0 0 0 0 0 0 0 0 0 0 0 0 0 0 0 0 0 0 0 0 0 0 1 1 0 0 0 0
0 0 0 0 0 0 0 0 0 0 0 0 0 0 0 0 0 0 0 0 0 0 0 0 0 0 0 0 0 0 0 0 0 0 0 0 0 0 0 0 0 0 0
0 0 0 0 0 0 0 0 0 0 0 0 0 0 0 0 0 0 0 0 0 0 0 0 0 0 0 0 0 0 0 0 0 0 0 0 0 0 0 0 0 0 0
0 0 0 0 0 0 0 0 0 0 0 0 0 0 0 0 0 0 0 0 0 0 0 0 0 0 0 0 0 0 0 0 0 0 0 0 0 0 0 0 0 0 0
0 0 0 0 0 0 0 0 0 0 0 0 0 0 0 0 0 0 0 0 0 0 0 0 0 0 0 0 0 0 0 0 0 0 0 0 0 0 0 0 0 0 0
Wind_Speed
5 5 4 4 3 3 2 2 1 0 0 1 1 2 2 2 3 3 3 3 3 3 3 3 3 3 3 3 3 3 3 3 3 3 2 1 3 4 3 4 3 4 3
5 5 4 4 4 3 3 2 1 0 1 1 2 2 2 2 3 3 3 3 3 3 3 4 4 3 3 3 3 2 2 3 3 4 3 2 3 4 4 4 4 3 3
5 5 5 4 3 3 2 1 1 0 1 1 1 2 2 3 3 3 3 3 3 3 3 4 4 4 4 3 3 2 2 2 2 3 3 3 3 3 4 4 4 3 4
5 5 4 3 3 2 2 1 0 1 1 2 2 2 2 3 3 3 3 3 3 3 3 3 4 4 4 4 3 2 2 3 2 3 3 3 2 2 3 3 2 2 3
5 4 4 3 3 2 1 1 1 1 1 1 2 2 2 2 2 4 4 3 3 3 3 3 3 3 5 5 4 3 3 2 2 3 2 2 2 2 2 2 3 2 2
4 4 3 3 3 2 2 1 1 1 1 2 2 2 2 3 4 4 5 4 3 3 3 3 3 2 2 3 4 5 5 4 3 4 3 3 3 3 3 3 3 3 2
4 4 3 3 3 2 2 1 1 1 1 2 2 2 2 3 2 3 4 4 3 3 3 4 4 3 4 3 3 5 5 6 6 5 4 5 4 3 4 4 3 3 3
5 4 4 3 3 2 1 1 1 1 1 2 2 2 2 2 2 3 5 4 3 3 3 3 4 5 5 5 5 4 4 3 4 5 4 5 5 4 4 4 4 4 4
5 5 4 3 3 2 1 1 1 2 2 2 1 2 2 1 1 3 6 3 2 3 3 3 4 4 4 6 5 5 4 3 4 5 5 5 6 6 5 4 4 4 3
5 4 4 3 3 2 1 1 1 2 2 3 2 2 2 2 1 3 6 4 3 3 2 2 0 3 4 6 5 4 4 3 3 3 4 5 6 6 7 6 5 4 3
5 4 3 3 2 2 1 1 2 2 2 2 2 2 2 2 2 3 4 4 4 4 3 2 1 1 4 5 5 5 5 5 5 4 3 3 3 4 4 5 4 5 4
4 4 3 3 2 2 1 2 2 2 2 2 2 3 2 2 2 2 3 4 6 5 4 4 3 3 5 6 5 4 6 6 5 4 3 3 3 3 2 3 4 4 4
4 4 3 3 2 2 2 2 2 3 3 2 2 2 2 2 1 4 5 5 6 5 4 5 6 7 7 6 7 7 6 5 4 4 4 3 3 3 3 3 4 5 6
4 4 3 3 3 2 2 2 2 2 2 2 3 3 3 2 2 1 2 3 5 6 5 5 8 10 8 7 6 6 5 4 4 4 4 3 3 3 4 4 4 4 5
4 4 3 3 2 2 2 2 3 2 3 4 4 4 4 4 4 5 6 5 5 5 6 6 5 4 4 4 4 3 3 4 4 4 4 4 4 4 4 4 4 5 6
4 3 3 2 2 2 1 1 1 3 3 5 6 7 4 4 6 6 7 7 8 7 6 5 5 5 5 4 4 4 4 4 4 4 5 5 5 5 5 5 5 5 6
3 3 3 2 2 2 2 2 2 3 6 7 8 8 8 8 8 9 8 8 9 7 6 6 5 5 5 5 5 5 5 4 4 5 5 5 5 6 6 6 6 5 6
4 4 4 3 2 2 2 2 2 3 2 2 5 8 9 9 10 10 8 7 6 6 6 6 6 6 5 5 6 6 5 5 5 5 5 6 6 6 6 7 6 7 7
4 3 3 2 2 2 3 3 3 3 4 4 4 3 6 8 10 10 7 6 6 6 6 6 6 6 6 6 6 6 6 6 6 6 6 7 7 7 7 8 7 7 8
3 2 3 3 3 3 3 3 3 4 4 4 5 4 4 5 6 5 5 6 6 7 7 7 6 7 6 7 7 7 7 7 7 7 7 7 7 7 8 9 8 8 8
3 4 5 4 3 3 3 3 4 4 5 5 5 4 5 7 7 7 7 6 6 7 7 7 7 7 7 7 7 8 9 8 8 8 7 7 8 8 8 8 8 9 9
2 2 2 2 2 2 3 4 4 5 5 6 6 4 4 6 7 7 6 6 7 7 7 7 7 7 7 7 7 8 8 9 8 8 8 9 8 8 9 9 9 8 9
2 2 2 2 2 2 4 4 4 5 5 6 6 6 5 6 7 7 7 7 7 7 7 7 8 8 8 7 7 8 8 9 8 8 9 9 9 9 9 9 10 11 10
2 3 3 2 3 3 4 4 4 5 6 6 6 6 6 6 7 7 8 7 7 7 7 7 8 10 11 9 8 8 7 7 9 8 10 10 10 10 10 10 10 12 11
3 3 3 3 3 3 4 5 5 5 6 6 6 7 7 7 7 7 7 7 8 8 9 9 8 9 10 11 10 8 5 4 5 7 9 9 10 11 11 12 11 11 12
3 3 3 3 3 4 5 5 5 6 6 6 7 7 7 7 7 7 7 7 8 8 8 8 9 10 11 10 9 7 5 5 5 6 7 8 10 10 11 10 13 12 13
Wind_Direction
148 148 151 149 144 148 150 146 136 119 24 337 340 316 318 320 324 322 325 322 324 332 327 324 317 310 302 297 284 272 273 277 277 289 291 273 275 284 284 278 267 253 205
151 153 153 149 150 155 141 131 128 100 333 337 320 310 319 330 330 323 320 326 327 329 333 332 330 323 307 296 290 285 283 282 273 284 291 280 271 270 276 274 268 261 249
157 157 154 160 159 152 136 130 129 128 313 316 296 298 316 320 320 315 322 327 330 335 338 332 330 326 317 315 299 297 282 272 269 270 281 290 275 272 272 264 261 261 257
159 158 156 160 158 155 149 156 204 266 285 300 304 311 310 313 319 320 323 327 328 332 332 327 326 325 324 315 304 298 297 285 270 261 263 267 268 264 263 270 265 240 257
160 156 151 150 149 147 161 198 239 265 283 300 306 311 316 309 333 330 317 309 311 318 322 324 334 337 335 320 318 319 301 290 282 271 264 268 277 270 262 269 273 262 241
161 156 151 153 150 153 181 220 255 281 302 314 324 324 330 357 24 347 307 299 299 307 315 318 306 278 300 271 283 296 300 290 295 292 282 279 274 274 281 272 274 271 258
156 152 150 152 154 171 185 192 243 279 311 324 331 332 350 20 15 334 307 289 294 310 313 311 317 343 308 313 270 236 243 242 250 278 285 284 282 286 282 277 275 282 287
162 163 162 164 164 173 192 204 248 266 286 304 318 327 338 24 13 322 304 279 298 309 311 312 315 318 334 321 303 293 276 241 235 246 268 276 282 291 279 274 273 264 256
170 167 166 166 165 177 200 247 260 268 284 291 309 318 325 357 346 301 293 292 293 300 304 314 312 319 347 319 291 288 285 271 227 233 259 272 285 284 284 273 262 260 269
173 169 167 171 180 196 216 246 264 270 275 288 315 312 309 313 305 285 290 287 305 305 300 288 306 319 323 314 295 295 295 298 298 265 234 238 243 239 228 244 263 270 281
174 174 176 184 190 201 220 246 255 258 275 293 303 298 291 291 244 253 286 294 307 305 310 313 11 358 294 296 288 288 292 296 290 277 262 250 241 234 224 221 240 259 274
172 177 180 190 209 200 220 251 259 262 257 262 276 287 283 266 272 247 254 272 294 296 303 316 345 327 302 292 281 282 279 274 269 271 269 267 267 262 247 240 236 245 258
171 179 186 196 208 223 236 246 253 248 261 281 292 303 312 312 210 214 235 249 260 272 297 310 293 284 282 268 247 256 261 255 265 272 274 274 271 271 265 244 237 234 241
176 182 188 199 208 211 244 252 268 281 283 287 300 310 316 312 314 308 276 252 242 248 271 266 247 250 249 258 261 242 245 265 279 278 275 272 272 258 248 258 258 250 250
179 188 196 199 201 231 252 297 294 314 319 300 308 312 310 310 345 348 320 312 315 324 312 284 274 270 269 267 264 259 253 243 245 261 269 270 262 259 257 255 256 257 262
179 190 200 201 208 231 229 227 251 258 250 250 259 274 289 283 288 293 292 289 287 291 285 276 282 284 287 288 288 280 266 259 260 262 264 263 265 267 267 262 259 260 266
188 198 217 218 222 231 241 255 257 235 229 234 239 245 254 270 274 275 277 279 271 260 258 272 279 283 287 288 286 284 282 276 274 272 272 272 271 271 269 268 268 269 270
200 198 221 225 237 250 259 265 271 283 279 260 228 225 235 246 255 262 268 274 260 235 255 270 276 279 282 286 287 286 284 279 269 269 271 272 272 274 276 275 271 272 275
213 211 217 237 243 249 258 265 273 283 289 294 296 238 223 239 241 245 242 259 280 283 280 280 279 279 282 284 284 282 281 280 280 279 274 270 269 270 272 273 274 270 269
201 206 245 246 247 252 257 270 280 286 288 291 294 303 299 286 285 273 253 267 277 284 287 288 287 286 283 282 281 279 276 274 273 269 270 270 269 269 272 274 276 275 271
195 177 201 236 250 264 274 280 286 288 293 297 299 308 307 294 292 292 291 286 283 286 289 288 285 283 279 278 279 281 281 281 281 280 278 274 273 272 273 274 275 276 278
214 211 212 233 250 267 284 283 286 291 295 297 299 295 253 273 288 293 296 297 297 296 294 290 288 287 288 288 288 286 285 284 284 284 283 283 281 278 276 274 273 278 279
227 236 242 250 260 261 266 278 287 292 296 299 303 305 299 297 299 299 299 297 297 298 296 290 287 289 293 292 288 286 287 289 291 294 292 288 286 283 280 280 279 277 277
227 244 259 264 268 275 281 287 290 295 298 302 303 304 303 300 298 299 300 302 302 300 298 297 295 297 299 298 294 291 295 302 301 294 292 290 288 288 287 285 282 283 282
248 255 265 269 276 283 290 292 296 299 301 303 303 303 303 304 304 303 303 304 305 303 303 301 299 299 299 300 300 303 321 322 301 300 293 283 279 278 279 282 285 286 285
252 259 267 274 281 288 290 292 296 300 300 301 303 306 306 307 309 309 307 308 308 307 307 303 301 303 303 298 302 309 303 294 286 280 280 279 278 277 282 282 285 285 285